Time,TemperatureF,DewpointF,PressureIn,WindDirection,WindDirectionDegrees,WindSpeedMPH,WindSpeedGustMPH,Humidity,HourlyPrecipIn,Conditions,Clouds,dailyrainin,SolarRadiationWatts/m^2,SoftwareType,DateUTC
2014-02-09 00:02:00,-3.5,-7.1,30.51,NW,324,6.0,8.0,84,0.00,,BKN100,0.00,0.00,VWS V14.00,2014-02-09 06:02:00,
2014-02-09 00:07:00,-3.6,-7.2,30.51,NW,321,5.0,8.0,84,0.00,,BKN100,0.00,0.00,VWS V14.00,2014-02-09 06:07:00,
2014-02-09 00:12:00,-3.7,-7.3,30.51,NW,319,4.0,8.0,84,0.00,,BKN100,0.00,0.00,VWS V14.00,2014-02-09 06:12:00,
2014-02-09 00:18:00,-3.9,-7.5,30.51,NW,314,4.0,8.0,84,0.00,,BKN100,0.00,0.00,VWS V14.00,2014-02-09 06:18:00,
2014-02-09 00:23:00,-4.1,-7.7,30.51,NW,312,3.0,8.0,84,0.00,,BKN100,0.00,0.00,VWS V14.00,2014-02-09 06:23:00,
2014-02-09 00:28:00,-4.2,-7.8,30.51,NW,324,4.0,8.0,84,0.00,,BKN100,0.00,0.00,VWS V14.00,2014-02-09 06:28:00,
2014-02-09 00:33:00,-4.6,-8.2,30.51,NNW,327,3.0,5.0,84,0.00,,BKN100,0.00,0.00,VWS V14.00,2014-02-09 06:33:00,
2014-02-09 00:38:00,-5.2,-9.0,30.51,NW,326,2.0,5.0,83,0.00,,BKN100,0.00,0.00,VWS V14.00,2014-02-09 06:38:00,
2014-02-09 00:43:00,-5.3,-9.1,30.52,NW,326,2.0,5.0,83,0.00,,OVC012,0.00,0.00,VWS V14.00,2014-02-09 06:43:00,
2014-02-09 00:48:00,-5.5,-9.1,30.52,NW,326,3.0,5.0,84,0.00,,OVC012,0.00,0.00,VWS V14.00,2014-02-09 06:48:00,
2014-02-09 00:53:00,-5.6,-9.2,30.52,NW,326,3.0,5.0,84,0.00,,OVC012,0.00,0.00,VWS V14.00,2014-02-09 06:53:00,
2014-02-09 00:58:00,-5.6,-9.2,30.52,NW,326,4.0,5.0,84,0.00,,OVC012,0.00,0.00,VWS V14.00,2014-02-09 06:58:00,
2014-02-09 01:03:00,-5.5,-9.1,30.53,NW,326,3.0,3.0,84,0.00,,OVC012,0.00,0.00,VWS V14.00,2014-02-09 07:03:00,
2014-02-09 01:08:00,-5.6,-9.2,30.53,NW,326,2.0,3.0,84,0.00,,OVC012,0.00,0.00,VWS V14.00,2014-02-09 07:08:00,
2014-02-09 01:13:00,-5.5,-9.1,30.54,NW,326,2.0,3.0,84,0.00,,OVC012,0.00,0.00,VWS V14.00,2014-02-09 07:13:00,
2014-02-09 01:18:00,-5.6,-9.2,30.54,NW,322,5.0,5.0,84,0.00,,OVC012,0.00,0.00,VWS V14.00,2014-02-09 07:18:00,
2014-02-09 01:23:00,-5.7,-9.3,30.54,NW,319,4.0,5.0,84,0.00,,OVC012,0.00,0.00,VWS V14.00,2014-02-09 07:23:00,
2014-02-09 01:28:00,-5.5,-9.1,30.54,NW,319,4.0,5.0,84,0.00,,OVC012,0.00,0.00,VWS V14.00,2014-02-09 07:28:00,
2014-02-09 01:33:00,-5.5,-9.1,30.54,NW,309,2.0,4.0,84,0.00,,OVC012,0.00,0.00,VWS V14.00,2014-02-09 07:33:00,
2014-02-09 01:38:00,-5.4,-9.0,30.54,WNW,294,3.0,5.0,84,0.00,,OVC012,0.00,0.00,VWS V14.00,2014-02-09 07:38:00,
2014-02-09 01:43:00,-4.9,-8.2,30.54,WNW,296,3.0,5.0,85,0.00,,BKN065,0.00,0.00,VWS V14.00,2014-02-09 07:43:00,
2014-02-09 01:48:00,-4.9,-8.5,30.54,WNW,290,3.0,5.0,84,0.00,,BKN065,0.00,0.00,VWS V14.00,2014-02-09 07:48:00,
2014-02-09 01:53:00,-5.1,-8.7,30.54,WNW,295,3.0,5.0,84,0.00,,BKN065,0.00,0.00,VWS V14.00,2014-02-09 07:53:00,
2014-02-09 01:58:00,-4.9,-8.5,30.54,WNW,292,3.0,5.0,84,0.00,,BKN065,0.00,0.00,VWS V14.00,2014-02-09 07:58:00,
2014-02-09 02:03:00,-4.5,-8.1,30.53,WNW,303,5.0,7.0,84,0.00,,BKN065,0.00,0.00,VWS V14.00,2014-02-09 08:03:00,
2014-02-09 02:09:00,-4.1,-7.7,30.53,NW,314,6.0,8.0,84,0.00,,BKN065,0.00,0.00,VWS V14.00,2014-02-09 08:09:00,
2014-02-09 02:14:00,-4.1,-7.7,30.53,NW,318,6.0,9.0,84,0.00,,BKN065,0.00,0.00,VWS V14.00,2014-02-09 08:14:00,
2014-02-09 02:19:00,-4.0,-7.6,30.53,NW,321,6.0,9.0,84,0.00,,BKN065,0.00,0.00,VWS V14.00,2014-02-09 08:19:00,
2014-02-09 02:24:00,-4.1,-7.9,30.53,NW,315,6.0,9.0,83,0.00,,BKN065,0.00,0.00,VWS V14.00,2014-02-09 08:24:00,
2014-02-09 02:29:00,-4.4,-8.2,30.53,NW,323,5.0,9.0,83,0.00,,BKN065,0.00,0.00,VWS V14.00,2014-02-09 08:29:00,
2014-02-09 02:34:00,-4.8,-8.6,30.53,NW,317,4.0,7.0,83,0.00,,BKN065,0.00,0.00,VWS V14.00,2014-02-09 08:34:00,
2014-02-09 02:39:00,-5.0,-8.8,30.54,NW,304,6.0,7.0,83,0.00,,BKN065,0.00,0.00,VWS V14.00,2014-02-09 08:39:00,
2014-02-09 02:44:00,-5.2,-9.0,30.54,NW,306,5.0,7.0,83,0.00,,,0.00,0.00,VWS V14.00,2014-02-09 08:44:00,
2014-02-09 02:49:00,-5.5,-9.6,30.54,NW,319,5.0,7.0,82,0.00,,,0.00,0.00,VWS V14.00,2014-02-09 08:49:00,
2014-02-09 02:54:00,-5.7,-9.5,30.54,NW,315,3.0,7.0,83,0.00,,,0.00,0.00,VWS V14.00,2014-02-09 08:54:00,
2014-02-09 02:59:00,-6.0,-10.1,30.54,NW,306,3.0,7.0,82,0.00,,,0.00,0.00,VWS V14.00,2014-02-09 08:59:00,
2014-02-09 03:04:00,-6.3,-10.4,30.54,WNW,302,4.0,5.0,82,0.00,,,0.00,0.00,VWS V14.00,2014-02-09 09:04:00,
2014-02-09 03:09:00,-6.4,-10.4,30.54,NW,310,4.0,5.0,82,0.00,,,0.00,0.00,VWS V14.00,2014-02-09 09:09:00,
2014-02-09 03:14:00,-6.4,-10.2,30.54,NW,308,3.0,6.0,83,0.00,,,0.00,0.00,VWS V14.00,2014-02-09 09:14:00,
2014-02-09 03:19:00,-6.3,-10.1,30.54,WNW,299,3.0,6.0,83,0.00,,,0.00,0.00,VWS V14.00,2014-02-09 09:19:00,
2014-02-09 03:24:00,-6.2,-10.0,30.53,NW,305,5.0,6.0,83,0.00,,,0.00,0.00,VWS V14.00,2014-02-09 09:24:00,
2014-02-09 03:29:00,-6.4,-10.2,30.53,NW,326,4.0,6.0,83,0.00,,,0.00,0.00,VWS V14.00,2014-02-09 09:29:00,
2014-02-09 03:34:00,-6.8,-10.8,30.53,NW,326,4.0,5.0,82,0.00,,,0.00,0.00,VWS V14.00,2014-02-09 09:34:00,
2014-02-09 03:39:00,-6.3,-10.1,30.53,NW,311,4.0,5.0,83,0.00,,,0.00,0.00,VWS V14.00,2014-02-09 09:39:00,
2014-02-09 03:44:00,-6.1,-9.9,30.53,NW,317,4.0,5.0,83,0.00,,BKN030,0.00,0.00,VWS V14.00,2014-02-09 09:44:00,
2014-02-09 03:49:00,-6.0,-9.8,30.53,NW,323,4.0,5.0,83,0.00,,BKN030,0.00,0.00,VWS V14.00,2014-02-09 09:49:00,
2014-02-09 03:54:00,-6.0,-9.8,30.53,NW,315,3.0,5.0,83,0.00,,BKN030,0.00,0.00,VWS V14.00,2014-02-09 09:54:00,
2014-02-09 04:00:00,-6.0,-9.8,30.53,NW,314,2.0,5.0,83,0.00,,BKN030,0.00,0.00,VWS V14.00,2014-02-09 10:00:00,
2014-02-09 04:05:00,-6.1,-9.9,30.53,NW,316,2.0,4.0,83,0.00,,BKN030,0.00,0.00,VWS V14.00,2014-02-09 10:05:00,
2014-02-09 04:10:00,-6.2,-10.0,30.53,NW,322,1.0,4.0,83,0.00,,BKN030,0.00,0.00,VWS V14.00,2014-02-09 10:10:00,
2014-02-09 04:15:00,-6.4,-10.4,30.53,NW,322,1.0,4.0,82,0.00,,BKN030,0.00,0.00,VWS V14.00,2014-02-09 10:15:00,
2014-02-09 04:20:00,-6.7,-10.7,30.53,NW,322,2.0,4.0,82,0.00,,BKN030,0.00,0.00,VWS V14.00,2014-02-09 10:20:00,
2014-02-09 04:25:00,-7.0,-11.0,30.53,NW,322,3.0,4.0,82,0.00,,BKN030,0.00,0.00,VWS V14.00,2014-02-09 10:25:00,
2014-02-09 04:30:00,-7.2,-11.2,30.53,NW,323,2.0,4.0,82,0.00,,BKN030,0.00,0.00,VWS V14.00,2014-02-09 10:30:00,
2014-02-09 04:35:00,-7.6,-11.6,30.53,NW,325,2.0,3.0,82,0.00,,BKN030,0.00,0.00,VWS V14.00,2014-02-09 10:35:00,
2014-02-09 04:40:00,-7.9,-11.9,30.53,NW,325,2.0,3.0,82,0.00,,BKN030,0.00,0.00,VWS V14.00,2014-02-09 10:40:00,
2014-02-09 04:45:00,-8.3,-12.3,30.54,NW,319,2.0,3.0,82,0.00,,SCT017,0.00,0.00,VWS V14.00,2014-02-09 10:45:00,
2014-02-09 04:50:00,-8.5,-12.5,30.54,NW,321,3.0,4.0,82,0.00,,SCT017,0.00,0.00,VWS V14.00,2014-02-09 10:50:00,
2014-02-09 04:55:00,-8.6,-12.6,30.53,NW,323,2.0,4.0,82,0.00,,SCT017,0.00,0.00,VWS V14.00,2014-02-09 10:55:00,
2014-02-09 05:00:00,-8.7,-12.7,30.53,NW,325,3.0,3.0,82,0.00,,SCT017,0.00,0.00,VWS V14.00,2014-02-09 11:00:00,
2014-02-09 05:05:00,-9.1,-13.1,30.54,NW,321,2.0,3.0,82,0.00,,SCT017,0.00,0.00,VWS V14.00,2014-02-09 11:05:00,
2014-02-09 05:10:00,-9.4,-13.4,30.54,NW,317,1.0,3.0,82,0.00,,SCT017,0.00,0.00,VWS V14.00,2014-02-09 11:10:00,
2014-02-09 05:15:00,-9.4,-13.4,30.54,NW,317,2.0,3.0,82,0.00,,SCT017,0.00,0.00,VWS V14.00,2014-02-09 11:15:00,
2014-02-09 05:20:00,-9.2,-12.9,30.54,NW,309,2.0,3.0,83,0.00,,SCT017,0.00,0.00,VWS V14.00,2014-02-09 11:20:00,
2014-02-09 05:25:00,-9.0,-12.8,30.54,WNW,300,2.0,3.0,83,0.00,,SCT017,0.00,0.00,VWS V14.00,2014-02-09 11:25:00,
2014-02-09 05:30:00,-9.2,-13.2,30.54,WNW,300,2.0,2.0,82,0.00,,SCT017,0.00,0.00,VWS V14.00,2014-02-09 11:30:00,
2014-02-09 05:35:00,-9.5,-13.5,30.54,WNW,300,2.0,2.0,82,0.00,,SCT017,0.00,0.00,VWS V14.00,2014-02-09 11:35:00,
2014-02-09 05:40:00,-9.7,-13.7,30.54,WNW,294,2.0,3.0,82,0.00,,OVC022,0.00,0.00,VWS V14.00,2014-02-09 11:40:00,
2014-02-09 05:46:00,-9.8,-13.8,30.54,WNW,292,2.0,4.0,82,0.00,,OVC022,0.00,0.00,VWS V14.00,2014-02-09 11:46:00,
2014-02-09 05:51:00,-10.0,-14.0,30.54,WNW,288,3.0,4.0,82,0.00,,FEW023,0.00,0.00,VWS V14.00,2014-02-09 11:51:00,
2014-02-09 05:56:00,-10.0,-14.0,30.54,WNW,293,3.0,4.0,82,0.00,,FEW023,0.00,0.00,VWS V14.00,2014-02-09 11:56:00,
2014-02-09 06:01:00,-9.8,-13.8,30.53,WNW,296,2.0,4.0,82,0.00,,FEW023,0.00,0.00,VWS V14.00,2014-02-09 12:01:00,
2014-02-09 06:06:00,-9.9,-13.9,30.53,WNW,299,2.0,4.0,82,0.00,,FEW023,0.00,0.00,VWS V14.00,2014-02-09 12:06:00,
2014-02-09 06:11:00,-10.2,-14.2,30.54,WNW,286,3.0,4.0,82,0.00,,FEW023,0.00,0.00,VWS V14.00,2014-02-09 12:11:00,
2014-02-09 06:16:00,-10.3,-14.3,30.53,WNW,284,4.0,4.0,82,0.00,,FEW023,0.00,0.00,VWS V14.00,2014-02-09 12:16:00,
2014-02-09 06:21:00,-9.7,-13.4,30.54,WNW,290,3.0,5.0,83,0.00,,FEW023,0.00,0.00,VWS V14.00,2014-02-09 12:21:00,
2014-02-09 06:26:00,-9.3,-13.3,30.54,WNW,287,3.0,5.0,82,0.00,,FEW023,0.00,0.00,VWS V14.00,2014-02-09 12:26:00,
2014-02-09 06:31:00,-9.4,-10.6,30.54,WNW,293,4.0,4.0,94,0.00,,FEW023,0.00,0.00,VWS V14.00,2014-02-09 12:31:00,
2014-02-09 06:36:00,-9.4,-13.4,30.54,WNW,294,3.0,5.0,82,0.00,,FEW023,0.00,0.00,VWS V14.00,2014-02-09 12:36:00,
2014-02-09 06:41:00,-9.7,-13.9,30.54,WNW,293,3.0,5.0,81,0.00,,FEW023,0.00,0.00,VWS V14.00,2014-02-09 12:41:00,
2014-02-09 06:46:00,-9.7,-13.9,30.54,WNW,288,4.0,5.0,81,0.00,,FEW023,0.00,0.00,VWS V14.00,2014-02-09 12:46:00,
2014-02-09 06:51:00,-9.5,-13.5,30.54,WNW,295,3.0,5.0,82,0.00,,CLR,0.00,0.00,VWS V14.00,2014-02-09 12:51:00,
2014-02-09 06:56:00,-9.7,-13.9,30.54,WNW,284,4.0,5.0,81,0.00,,CLR,0.00,0.00,VWS V14.00,2014-02-09 12:56:00,
2014-02-09 07:01:00,-10.0,-14.2,30.54,WNW,283,2.0,4.0,81,0.00,,CLR,0.00,0.00,VWS V14.00,2014-02-09 13:01:00,
2014-02-09 07:06:00,-10.4,-14.6,30.55,WNW,286,3.0,4.0,81,0.00,,CLR,0.00,0.00,VWS V14.00,2014-02-09 13:06:00,
2014-02-09 07:11:00,-10.5,-14.7,30.55,WNW,284,3.0,4.0,81,0.00,,CLR,0.00,0.00,VWS V14.00,2014-02-09 13:11:00,
2014-02-09 07:16:00,-10.4,-14.4,30.55,WNW,284,3.0,4.0,82,0.00,,CLR,0.00,0.00,VWS V14.00,2014-02-09 13:16:00,
2014-02-09 07:21:00,-10.4,-14.4,30.55,WNW,284,3.0,4.0,82,0.00,,CLR,0.00,0.00,VWS V14.00,2014-02-09 13:21:00,
2014-02-09 07:26:00,-10.2,-14.2,30.55,West,281,5.0,6.0,82,0.00,,CLR,0.00,0.00,VWS V14.00,2014-02-09 13:26:00,
2014-02-09 07:31:00,-10.3,-14.5,30.55,WNW,294,3.0,4.0,81,0.00,,CLR,0.00,0.00,VWS V14.00,2014-02-09 13:31:00,
2014-02-09 07:37:00,-10.2,-14.2,30.56,WNW,292,3.0,5.0,82,0.00,,CLR,0.00,0.00,VWS V14.00,2014-02-09 13:37:00,
2014-02-09 07:42:00,-10.3,-14.3,30.56,WNW,300,4.0,5.0,82,0.00,,CLR,0.00,0.00,VWS V14.00,2014-02-09 13:42:00,
2014-02-09 07:47:00,-10.2,-14.2,30.56,NW,304,3.0,6.0,82,0.00,,CLR,0.00,0.00,VWS V14.00,2014-02-09 13:47:00,
2014-02-09 07:52:00,-9.9,-13.9,30.56,NW,307,3.0,6.0,82,0.00,,CLR,0.00,0.00,VWS V14.00,2014-02-09 13:52:00,
2014-02-09 07:57:00,-9.7,-13.7,30.56,NW,313,4.0,6.0,82,0.00,,CLR,0.00,5.00,VWS V14.00,2014-02-09 13:57:00,
2014-02-09 08:02:00,-9.4,-13.4,30.56,NW,311,4.0,6.0,82,0.00,,CLR,0.00,9.00,VWS V14.00,2014-02-09 14:02:00,
2014-02-09 08:07:00,-9.2,-13.2,30.56,NW,307,4.0,7.0,82,0.00,,CLR,0.00,12.00,VWS V14.00,2014-02-09 14:07:00,
2014-02-09 08:12:00,-9.1,-13.1,30.56,NW,314,6.0,7.0,82,0.00,,CLR,0.00,14.00,VWS V14.00,2014-02-09 14:12:00,
2014-02-09 08:17:00,-9.0,-13.0,30.56,NW,311,6.0,7.0,82,0.00,,CLR,0.00,19.00,VWS V14.00,2014-02-09 14:17:00,
2014-02-09 08:22:00,-9.3,-13.5,30.57,WNW,298,4.0,7.0,81,0.00,,CLR,0.00,25.00,VWS V14.00,2014-02-09 14:22:00,
2014-02-09 08:27:00,-9.8,-14.0,30.57,NW,310,5.0,7.0,81,0.00,,CLR,0.00,30.00,VWS V14.00,2014-02-09 14:27:00,
2014-02-09 08:32:00,-9.7,-13.9,30.57,NW,308,4.0,5.0,81,0.00,,CLR,0.00,39.00,VWS V14.00,2014-02-09 14:32:00,
2014-02-09 08:37:00,-9.8,-14.0,30.57,NW,309,4.0,5.0,81,0.00,,CLR,0.00,47.00,VWS V14.00,2014-02-09 14:37:00,
2014-02-09 08:42:00,-9.8,-14.0,30.58,NW,306,3.0,5.0,81,0.00,,CLR,0.00,58.00,VWS V14.00,2014-02-09 14:42:00,
2014-02-09 08:47:00,-9.8,-14.0,30.58,WNW,301,3.0,5.0,81,0.00,,CLR,0.00,67.00,VWS V14.00,2014-02-09 14:47:00,
2014-02-09 08:52:00,-9.7,-13.9,30.58,WNW,298,3.0,5.0,81,0.00,,CLR,0.00,79.00,VWS V14.00,2014-02-09 14:52:00,
2014-02-09 08:57:00,-9.4,-13.4,30.58,WNW,290,4.0,5.0,82,0.00,,CLR,0.00,90.00,VWS V14.00,2014-02-09 14:57:00,
2014-02-09 09:02:00,-9.1,-13.1,30.58,WNW,301,3.0,4.0,82,0.00,,CLR,0.00,98.00,VWS V14.00,2014-02-09 15:02:00,
2014-02-09 09:07:00,-8.8,-12.8,30.59,WNW,301,3.0,5.0,82,0.00,,CLR,0.00,107.00,VWS V14.00,2014-02-09 15:07:00,
2014-02-09 09:12:00,-8.8,-13.0,30.59,WNW,294,4.0,5.0,81,0.00,,CLR,0.00,118.00,VWS V14.00,2014-02-09 15:12:00,
2014-02-09 09:17:00,-8.6,-12.6,30.59,WNW,298,4.0,5.0,82,0.00,,CLR,0.00,121.00,VWS V14.00,2014-02-09 15:17:00,
2014-02-09 09:22:00,-8.4,-12.4,30.59,NW,309,4.0,6.0,82,0.00,,CLR,0.00,125.00,VWS V14.00,2014-02-09 15:22:00,
2014-02-09 09:28:00,-8.2,-12.2,30.59,WNW,294,5.0,6.0,82,0.00,,CLR,0.00,134.00,VWS V14.00,2014-02-09 15:28:00,
2014-02-09 09:33:00,-7.9,-11.9,30.59,WNW,297,4.0,6.0,82,0.00,,CLR,0.00,139.00,VWS V14.00,2014-02-09 15:33:00,
2014-02-09 09:38:00,-7.7,-12.0,30.58,NW,311,5.0,6.0,81,0.00,,CLR,0.00,142.00,VWS V14.00,2014-02-09 15:38:00,
2014-02-09 09:43:00,-7.4,-11.7,30.59,NW,304,5.0,6.0,81,0.00,,CLR,0.00,148.00,VWS V14.00,2014-02-09 15:43:00,
2014-02-09 09:48:00,-7.3,-11.6,30.59,WNW,296,4.0,6.0,81,0.00,,CLR,0.00,146.00,VWS V14.00,2014-02-09 15:48:00,
2014-02-09 09:53:00,-6.9,-10.9,30.60,NW,305,6.0,6.0,82,0.00,,CLR,0.00,137.00,VWS V14.00,2014-02-09 15:53:00,
2014-02-09 09:58:00,-6.4,-10.4,30.60,WNW,296,6.0,7.0,82,0.00,,CLR,0.00,123.00,VWS V14.00,2014-02-09 15:58:00,
2014-02-09 10:03:00,-6.2,-10.5,30.60,NW,309,4.0,6.0,81,0.00,,CLR,0.00,123.00,VWS V14.00,2014-02-09 16:03:00,
2014-02-09 10:08:00,-6.0,-10.3,30.60,WNW,302,5.0,7.0,81,0.00,,CLR,0.00,172.00,VWS V14.00,2014-02-09 16:08:00,
2014-02-09 10:13:00,-5.7,-10.0,30.60,WNW,298,5.0,7.0,81,0.00,,CLR,0.00,206.00,VWS V14.00,2014-02-09 16:13:00,
2014-02-09 10:18:00,-5.3,-9.6,30.60,WNW,290,6.0,9.0,81,0.00,,CLR,0.00,163.00,VWS V14.00,2014-02-09 16:18:00,
2014-02-09 10:23:00,-4.8,-9.1,30.60,WNW,298,5.0,9.0,81,0.00,,CLR,0.00,185.00,VWS V14.00,2014-02-09 16:23:00,
2014-02-09 10:28:00,-4.6,-8.9,30.59,WNW,294,8.0,11.0,81,0.00,,CLR,0.00,227.00,VWS V14.00,2014-02-09 16:28:00,
2014-02-09 10:33:00,-4.4,-9.0,30.59,NW,314,7.0,11.0,80,0.00,,CLR,0.00,239.00,VWS V14.00,2014-02-09 16:33:00,
2014-02-09 10:38:00,-4.1,-8.7,30.59,NW,315,10.0,11.0,80,0.00,,CLR,0.00,250.00,VWS V14.00,2014-02-09 16:38:00,
2014-02-09 10:43:00,-4.2,-9.1,30.60,NW,318,8.0,13.0,79,0.00,,CLR,0.00,272.00,VWS V14.00,2014-02-09 16:43:00,
2014-02-09 10:48:00,-3.9,-8.8,30.60,NW,317,10.0,14.0,79,0.00,,CLR,0.00,290.00,VWS V14.00,2014-02-09 16:48:00,
2014-02-09 10:53:00,-3.8,-8.9,30.60,NW,319,9.0,15.0,78,0.00,,CLR,0.00,322.00,VWS V14.00,2014-02-09 16:53:00,
2014-02-09 10:58:00,-3.9,-9.3,30.59,NW,306,13.0,17.0,77,0.00,,CLR,0.00,357.00,VWS V14.00,2014-02-09 16:58:00,
2014-02-09 11:03:00,-3.7,-9.4,30.60,NW,306,11.0,14.0,76,0.00,,CLR,0.00,390.00,VWS V14.00,2014-02-09 17:03:00,
2014-02-09 11:08:00,-3.6,-9.2,30.60,NW,315,8.0,14.0,76,0.00,,CLR,0.00,403.00,VWS V14.00,2014-02-09 17:08:00,
2014-02-09 11:14:00,-3.6,-9.2,30.60,NW,311,15.0,15.0,76,0.00,,CLR,0.00,413.00,VWS V14.00,2014-02-09 17:14:00,
2014-02-09 11:19:00,-3.6,-9.5,30.60,NW,323,13.0,19.0,75,0.00,,CLR,0.00,424.00,VWS V14.00,2014-02-09 17:19:00,
2014-02-09 11:24:00,-3.5,-9.4,30.60,NW,319,7.0,19.0,75,0.00,,CLR,0.00,434.00,VWS V14.00,2014-02-09 17:24:00,
2014-02-09 11:29:00,-3.3,-9.5,30.61,NW,312,15.0,19.0,74,0.00,,CLR,0.00,446.00,VWS V14.00,2014-02-09 17:29:00,
2014-02-09 11:34:00,-3.0,-9.2,30.60,NW,305,11.0,12.0,74,0.00,,CLR,0.00,455.00,VWS V14.00,2014-02-09 17:34:00,
2014-02-09 11:39:00,-2.6,-8.8,30.61,NNW,327,12.0,16.0,74,0.00,,CLR,0.00,466.00,VWS V14.00,2014-02-09 17:39:00,
2014-02-09 11:44:00,-2.8,-9.3,30.61,NNW,335,12.0,18.0,73,0.00,,SCT016,0.00,468.00,VWS V14.00,2014-02-09 17:44:00,
2014-02-09 11:49:00,-2.7,-9.2,30.60,NNW,328,13.0,20.0,73,0.00,,SCT016,0.00,483.00,VWS V14.00,2014-02-09 17:49:00,
2014-02-09 11:54:00,-2.8,-9.6,30.60,NNW,341,16.0,21.0,72,0.00,,SCT016,0.00,489.00,VWS V14.00,2014-02-09 17:54:00,
2014-02-09 11:59:00,-2.6,-9.4,30.60,NW,312,22.0,22.0,72,0.00,,SCT016,0.00,501.00,VWS V14.00,2014-02-09 17:59:00,
2014-02-09 12:04:00,-2.9,-10.2,30.60,NW,318,11.0,17.0,70,0.00,,SCT016,0.00,504.00,VWS V14.00,2014-02-09 18:04:00,
2014-02-09 12:09:00,-2.4,-9.5,30.60,NW,306,12.0,17.0,71,0.00,,SCT016,0.00,510.00,VWS V14.00,2014-02-09 18:09:00,
2014-02-09 12:14:00,-2.2,-9.6,30.61,NW,323,10.0,17.0,70,0.00,,SCT016,0.00,508.00,VWS V14.00,2014-02-09 18:14:00,
2014-02-09 12:19:00,-2.2,-9.6,30.61,NW,308,13.0,17.0,70,0.00,,SCT016,0.00,515.00,VWS V14.00,2014-02-09 18:19:00,
2014-02-09 12:24:00,-2.2,-9.9,30.61,NW,315,11.0,17.0,69,0.00,,SCT016,0.00,524.00,VWS V14.00,2014-02-09 18:24:00,
2014-02-09 12:29:00,-2.0,-9.7,30.60,NNW,329,9.0,17.0,69,0.00,,SCT016,0.00,527.00,VWS V14.00,2014-02-09 18:29:00,
2014-02-09 12:34:00,-1.6,-9.0,30.60,NW,308,8.0,17.0,70,0.00,,SCT016,0.00,531.00,VWS V14.00,2014-02-09 18:34:00,
2014-02-09 12:39:00,-1.6,-8.7,30.60,WNW,301,8.0,17.0,71,0.00,,SCT016,0.00,536.00,VWS V14.00,2014-02-09 18:39:00,
2014-02-09 12:44:00,-1.7,-8.8,30.60,NW,304,13.0,18.0,71,0.00,,CLR,0.00,531.00,VWS V14.00,2014-02-09 18:44:00,
2014-02-09 12:49:00,-1.7,-9.4,30.60,NW,325,16.0,21.0,69,0.00,,CLR,0.00,536.00,VWS V14.00,2014-02-09 18:49:00,
2014-02-09 12:54:00,-1.5,-9.5,30.60,NW,323,13.0,21.0,68,0.00,,CLR,0.00,534.00,VWS V14.00,2014-02-09 18:54:00,
2014-02-09 13:00:00,-1.5,-9.2,30.59,NNW,334,13.0,21.0,69,0.00,,CLR,0.00,531.00,VWS V14.00,2014-02-09 19:00:00,
2014-02-09 13:05:00,-1.4,-9.1,30.59,NW,318,11.0,16.0,69,0.00,,CLR,0.00,533.00,VWS V14.00,2014-02-09 19:05:00,
2014-02-09 13:10:00,-1.3,-8.7,30.59,NNW,329,13.0,17.0,70,0.00,,CLR,0.00,527.00,VWS V14.00,2014-02-09 19:10:00,
2014-02-09 13:15:00,-1.4,-9.1,30.59,NW,314,10.0,17.0,69,0.00,,CLR,0.00,540.00,VWS V14.00,2014-02-09 19:15:00,
2014-02-09 13:20:00,-1.0,-8.4,30.59,NW,313,16.0,19.0,70,0.00,,CLR,0.00,550.00,VWS V14.00,2014-02-09 19:20:00,
2014-02-09 13:25:00,-1.3,-9.0,30.59,NNW,330,15.0,20.0,69,0.00,,CLR,0.00,489.00,VWS V14.00,2014-02-09 19:25:00,
2014-02-09 13:30:00,-1.3,-9.0,30.59,NNW,331,12.0,20.0,69,0.00,,CLR,0.00,506.00,VWS V14.00,2014-02-09 19:30:00,
2014-02-09 13:35:00,-1.4,-8.8,30.59,NW,309,7.0,14.0,70,0.00,,CLR,0.00,510.00,VWS V14.00,2014-02-09 19:35:00,
2014-02-09 13:40:00,-1.0,-8.4,30.58,NW,321,12.0,17.0,70,0.00,,CLR,0.00,534.00,VWS V14.00,2014-02-09 19:40:00,
2014-02-09 13:45:00,-0.9,-8.3,30.58,NNW,329,14.0,18.0,70,0.00,,CLR,0.00,533.00,VWS V14.00,2014-02-09 19:45:00,
2014-02-09 13:50:00,-0.9,-8.3,30.58,NW,317,12.0,18.0,70,0.00,,CLR,0.00,517.00,VWS V14.00,2014-02-09 19:50:00,
2014-02-09 13:55:00,-0.9,-8.0,30.58,NNW,333,16.0,18.0,71,0.00,,CLR,0.00,522.00,VWS V14.00,2014-02-09 19:55:00,
2014-02-09 14:00:00,-0.9,-8.3,30.58,NW,312,8.0,10.0,70,0.00,,CLR,0.00,501.00,VWS V14.00,2014-02-09 20:00:00,
2014-02-09 14:05:00,-0.6,-7.7,30.58,WNW,294,12.0,17.0,71,0.00,,CLR,0.00,508.00,VWS V14.00,2014-02-09 20:05:00,
2014-02-09 14:10:00,-0.6,-8.0,30.58,NW,315,10.0,17.0,70,0.00,,CLR,0.00,497.00,VWS V14.00,2014-02-09 20:10:00,
2014-02-09 14:15:00,-0.8,-8.2,30.57,NW,319,13.0,17.0,70,0.00,,CLR,0.00,503.00,VWS V14.00,2014-02-09 20:15:00,
2014-02-09 14:20:00,-0.6,-8.0,30.57,NNW,341,11.0,17.0,70,0.00,,CLR,0.00,492.00,VWS V14.00,2014-02-09 20:20:00,
2014-02-09 14:25:00,-0.3,-7.4,30.57,WNW,298,8.0,17.0,71,0.00,,CLR,0.00,483.00,VWS V14.00,2014-02-09 20:25:00,
2014-02-09 14:30:00,-0.2,-7.6,30.57,NW,320,10.0,10.0,70,0.00,,CLR,0.00,475.00,VWS V14.00,2014-02-09 20:30:00,
2014-02-09 14:35:00,-0.2,-7.6,30.57,NNW,337,9.0,13.0,70,0.00,,CLR,0.00,461.00,VWS V14.00,2014-02-09 20:35:00,
2014-02-09 14:40:00,-0.2,-7.6,30.57,NNW,339,9.0,13.0,70,0.00,,FEW026,0.00,462.00,VWS V14.00,2014-02-09 20:40:00,
2014-02-09 14:45:00,-0.1,-7.2,30.57,NNW,333,7.0,13.0,71,0.00,,FEW026,0.00,446.00,VWS V14.00,2014-02-09 20:45:00,
2014-02-09 14:51:00,-0.1,-7.5,30.57,NNW,335,10.0,16.0,70,0.00,,FEW026,0.00,441.00,VWS V14.00,2014-02-09 20:51:00,
2014-02-09 14:56:00,-0.2,-7.6,30.57,NNW,331,11.0,16.0,70,0.00,,FEW026,0.00,438.00,VWS V14.00,2014-02-09 20:56:00,
2014-02-09 15:01:00,-0.1,-7.5,30.57,NW,312,6.0,10.0,70,0.00,,FEW026,0.00,418.00,VWS V14.00,2014-02-09 21:01:00,
2014-02-09 15:06:00,-0.1,-7.8,30.58,NNW,335,11.0,14.0,69,0.00,,FEW026,0.00,422.00,VWS V14.00,2014-02-09 21:06:00,
2014-02-09 15:11:00,-0.1,-7.7,30.58,NW,319,12.0,14.0,69,0.00,,FEW026,0.00,390.00,VWS V14.00,2014-02-09 21:11:00,
2014-02-09 15:16:00,0.2,-7.6,30.58,NW,319,8.0,14.0,69,0.00,,FEW026,0.00,374.00,VWS V14.00,2014-02-09 21:16:00,
2014-02-09 15:21:00,0.3,-7.4,30.58,NW,304,9.0,15.0,69,0.00,,FEW026,0.00,381.00,VWS V14.00,2014-02-09 21:21:00,
2014-02-09 15:26:00,0.2,-7.6,30.58,NW,316,9.0,15.0,69,0.00,,FEW026,0.00,374.00,VWS V14.00,2014-02-09 21:26:00,
2014-02-09 15:31:00,0.4,-7.3,30.58,NW,325,8.0,10.0,69,0.00,,FEW026,0.00,364.00,VWS V14.00,2014-02-09 21:31:00,
2014-02-09 15:36:00,0.4,-7.3,30.58,NW,309,9.0,14.0,69,0.00,,FEW026,0.00,357.00,VWS V14.00,2014-02-09 21:36:00,
2014-02-09 15:41:00,0.3,-7.4,30.58,NW,324,8.0,14.0,69,0.00,,CLR,0.00,341.00,VWS V14.00,2014-02-09 21:41:00,
2014-02-09 15:46:00,0.4,-7.3,30.59,NNW,331,9.0,14.0,69,0.00,,CLR,0.00,329.00,VWS V14.00,2014-02-09 21:46:00,
2014-02-09 15:51:00,0.5,-7.3,30.59,NW,324,14.0,14.0,69,0.00,,CLR,0.00,306.00,VWS V14.00,2014-02-09 21:51:00,
2014-02-09 15:56:00,0.4,-7.7,30.59,NNW,335,12.0,14.0,68,0.00,,CLR,0.00,302.00,VWS V14.00,2014-02-09 21:56:00,
2014-02-09 16:01:00,0.3,-7.8,30.59,WNW,303,10.0,10.0,68,0.00,,CLR,0.00,288.00,VWS V14.00,2014-02-09 22:01:00,
2014-02-09 16:06:00,0.4,-7.7,30.59,NW,321,11.0,13.0,68,0.00,,CLR,0.00,276.00,VWS V14.00,2014-02-09 22:06:00,
2014-02-09 16:11:00,0.5,-7.6,30.60,NW,317,11.0,13.0,68,0.00,,CLR,0.00,260.00,VWS V14.00,2014-02-09 22:11:00,
2014-02-09 16:16:00,0.4,-7.7,30.59,NW,304,8.0,13.0,68,0.00,,CLR,0.00,244.00,VWS V14.00,2014-02-09 22:16:00,
2014-02-09 16:21:00,0.5,-7.6,30.60,NW,323,12.0,13.0,68,0.00,,CLR,0.00,234.00,VWS V14.00,2014-02-09 22:21:00,
2014-02-09 16:26:00,0.4,-7.7,30.60,NW,313,11.0,13.0,68,0.00,,CLR,0.00,207.00,VWS V14.00,2014-02-09 22:26:00,
2014-02-09 16:31:00,0.4,-7.7,30.60,WNW,302,13.0,13.0,68,0.00,,CLR,0.00,195.00,VWS V14.00,2014-02-09 22:31:00,
2014-02-09 16:37:00,0.4,-7.7,30.60,NW,314,12.0,13.0,68,0.00,,CLR,0.00,178.00,VWS V14.00,2014-02-09 22:37:00,
2014-02-09 16:42:00,0.4,-7.7,30.60,NW,321,9.0,13.0,68,0.00,,CLR,0.00,163.00,VWS V14.00,2014-02-09 22:42:00,
2014-02-09 16:47:00,0.4,-7.7,30.60,NW,313,12.0,14.0,68,0.00,,CLR,0.00,148.00,VWS V14.00,2014-02-09 22:47:00,
2014-02-09 16:52:00,0.3,-7.4,30.60,NW,304,8.0,14.0,69,0.00,,CLR,0.00,132.00,VWS V14.00,2014-02-09 22:52:00,
2014-02-09 16:57:00,0.1,-7.9,30.60,WNW,300,10.0,14.0,68,0.00,,CLR,0.00,114.00,VWS V14.00,2014-02-09 22:57:00,
2014-02-09 17:02:00,-0.1,-7.7,30.60,NW,306,8.0,11.0,69,0.00,,CLR,0.00,98.00,VWS V14.00,2014-02-09 23:02:00,
2014-02-09 17:07:00,-0.1,-7.7,30.60,NW,316,7.0,11.0,69,0.00,,CLR,0.00,81.00,VWS V14.00,2014-02-09 23:07:00,
2014-02-09 17:12:00,-0.1,-7.8,30.60,NW,316,7.0,11.0,69,0.00,,CLR,0.00,70.00,VWS V14.00,2014-02-09 23:12:00,
2014-02-09 17:17:00,-0.2,-7.9,30.60,NW,308,7.0,11.0,69,0.00,,CLR,0.00,58.00,VWS V14.00,2014-02-09 23:17:00,
2014-02-09 17:22:00,-0.4,-7.8,30.60,NW,310,9.0,11.0,70,0.00,,CLR,0.00,47.00,VWS V14.00,2014-02-09 23:22:00,
2014-02-09 17:27:00,-0.5,-7.9,30.60,NW,313,7.0,11.0,70,0.00,,CLR,0.00,37.00,VWS V14.00,2014-02-09 23:27:00,
2014-02-09 17:32:00,-0.7,-8.1,30.60,NW,313,8.0,10.0,70,0.00,,CLR,0.00,30.00,VWS V14.00,2014-02-09 23:32:00,
2014-02-09 17:37:00,-0.8,-8.2,30.61,NW,314,5.0,10.0,70,0.00,,CLR,0.00,23.00,VWS V14.00,2014-02-09 23:37:00,
2014-02-09 17:42:00,-1.0,-8.4,30.61,NW,322,6.0,10.0,70,0.00,,CLR,0.00,19.00,VWS V14.00,2014-02-09 23:42:00,
2014-02-09 17:47:00,-1.4,-8.5,30.61,NW,323,5.0,10.0,71,0.00,,CLR,0.00,16.00,VWS V14.00,2014-02-09 23:47:00,
2014-02-09 17:52:00,-2.1,-9.2,30.61,NNW,330,5.0,10.0,71,0.00,,CLR,0.00,11.00,VWS V14.00,2014-02-09 23:52:00,
2014-02-09 17:57:00,-2.7,-9.5,30.61,NNW,336,4.0,10.0,72,0.00,,CLR,0.00,7.00,VWS V14.00,2014-02-09 23:57:00,
2014-02-09 18:02:00,-3.2,-9.7,30.61,NNW,340,5.0,6.0,73,0.00,,CLR,0.00,5.00,VWS V14.00,2014-02-10 00:02:00,
2014-02-09 18:07:00,-3.7,-10.2,30.61,NNW,339,5.0,6.0,73,0.00,,CLR,0.00,0.00,VWS V14.00,2014-02-10 00:07:00,
2014-02-09 18:12:00,-4.2,-10.4,30.61,NNW,342,3.0,6.0,74,0.00,,CLR,0.00,0.00,VWS V14.00,2014-02-10 00:12:00,
2014-02-09 18:18:00,-4.5,-10.4,30.61,NNW,342,4.0,6.0,75,0.00,,CLR,0.00,0.00,VWS V14.00,2014-02-10 00:18:00,
2014-02-09 18:23:00,-4.8,-10.7,30.61,NNW,343,4.0,6.0,75,0.00,,CLR,0.00,0.00,VWS V14.00,2014-02-10 00:23:00,
2014-02-09 18:28:00,-5.0,-10.9,30.62,NNW,343,4.0,6.0,75,0.00,,CLR,0.00,0.00,VWS V14.00,2014-02-10 00:28:00,
2014-02-09 18:33:00,-5.1,-11.0,30.62,NNW,336,3.0,5.0,75,0.00,,CLR,0.00,0.00,VWS V14.00,2014-02-10 00:33:00,
2014-02-09 18:38:00,-5.5,-11.4,30.62,NNW,342,5.0,5.0,75,0.00,,CLR,0.00,0.00,VWS V14.00,2014-02-10 00:38:00,
2014-02-09 18:43:00,-5.7,-11.3,30.62,NNW,341,4.0,5.0,76,0.00,,CLR,0.00,0.00,VWS V14.00,2014-02-10 00:43:00,
2014-02-09 18:48:00,-5.9,-11.5,30.62,NNW,347,3.0,5.0,76,0.00,,CLR,0.00,0.00,VWS V14.00,2014-02-10 00:48:00,
2014-02-09 18:53:00,-5.8,-11.1,30.63,NNW,342,3.0,5.0,77,0.00,,CLR,0.00,0.00,VWS V14.00,2014-02-10 00:53:00,
2014-02-09 18:58:00,-6.1,-11.7,30.63,NNW,335,4.0,5.0,76,0.00,,CLR,0.00,0.00,VWS V14.00,2014-02-10 00:58:00,
2014-02-09 19:03:00,-6.4,-12.0,30.63,NNW,333,3.0,5.0,76,0.00,,CLR,0.00,0.00,VWS V14.00,2014-02-10 01:03:00,
2014-02-09 19:08:00,-6.4,-11.7,30.63,NNW,332,3.0,5.0,77,0.00,,CLR,0.00,0.00,VWS V14.00,2014-02-10 01:08:00,
2014-02-09 19:13:00,-6.3,-11.6,30.63,NNW,329,2.0,5.0,77,0.00,,CLR,0.00,0.00,VWS V14.00,2014-02-10 01:13:00,
2014-02-09 19:18:00,-6.4,-11.7,30.63,NNW,329,3.0,5.0,77,0.00,,CLR,0.00,0.00,VWS V14.00,2014-02-10 01:18:00,
2014-02-09 19:23:00,-6.6,-11.9,30.63,NNW,347,3.0,5.0,77,0.00,,CLR,0.00,0.00,VWS V14.00,2014-02-10 01:23:00,
2014-02-09 19:28:00,-6.4,-11.4,30.63,NNW,346,2.0,5.0,78,0.00,,CLR,0.00,0.00,VWS V14.00,2014-02-10 01:28:00,
2014-02-09 19:33:00,-6.5,-11.8,30.63,NNW,346,2.0,3.0,77,0.00,,CLR,0.00,0.00,VWS V14.00,2014-02-10 01:33:00,
2014-02-09 19:38:00,-6.7,-12.0,30.63,NNW,346,3.0,4.0,77,0.00,,CLR,0.00,0.00,VWS V14.00,2014-02-10 01:38:00,
2014-02-09 19:43:00,-6.7,-11.8,30.63,North,350,3.0,4.0,78,0.00,,CLR,0.00,0.00,VWS V14.00,2014-02-10 01:43:00,
2014-02-09 19:48:00,-6.8,-11.8,30.63,NNW,346,4.0,5.0,78,0.00,,CLR,0.00,0.00,VWS V14.00,2014-02-10 01:48:00,
2014-02-09 19:53:00,-6.9,-11.9,30.63,North,350,2.0,5.0,78,0.00,,CLR,0.00,0.00,VWS V14.00,2014-02-10 01:53:00,
2014-02-09 19:58:00,-7.1,-12.1,30.63,North,350,2.0,5.0,78,0.00,,CLR,0.00,0.00,VWS V14.00,2014-02-10 01:58:00,
2014-02-09 20:04:00,-7.3,-12.3,30.63,North,350,3.0,3.0,78,0.00,,CLR,0.00,0.00,VWS V14.00,2014-02-10 02:04:00,
2014-02-09 20:09:00,-7.5,-12.5,30.63,North,355,3.0,4.0,78,0.00,,CLR,0.00,0.00,VWS V14.00,2014-02-10 02:09:00,
2014-02-09 20:14:00,-7.5,-12.3,30.63,North,355,3.0,4.0,79,0.00,,CLR,0.00,0.00,VWS V14.00,2014-02-10 02:14:00,
2014-02-09 20:19:00,-7.7,-12.7,30.63,North,355,3.0,4.0,78,0.00,,CLR,0.00,0.00,VWS V14.00,2014-02-10 02:19:00,
2014-02-09 20:24:00,-7.8,-12.8,30.63,North,355,4.0,4.0,78,0.00,,CLR,0.00,0.00,VWS V14.00,2014-02-10 02:24:00,
2014-02-09 20:29:00,-7.9,-12.7,30.63,North,355,4.0,4.0,79,0.00,,CLR,0.00,0.00,VWS V14.00,2014-02-10 02:29:00,
2014-02-09 20:34:00,-8.0,-12.8,30.63,North,355,2.0,4.0,79,0.00,,CLR,0.00,0.00,VWS V14.00,2014-02-10 02:34:00,
2014-02-09 20:39:00,-8.0,-12.8,30.63,North,355,2.0,4.0,79,0.00,,CLR,0.00,0.00,VWS V14.00,2014-02-10 02:39:00,
2014-02-09 20:44:00,-8.0,-12.8,30.63,North,355,3.0,4.0,79,0.00,,CLR,0.00,0.00,VWS V14.00,2014-02-10 02:44:00,
2014-02-09 20:49:00,-8.1,-12.9,30.63,North,355,3.0,4.0,79,0.00,,CLR,0.00,0.00,VWS V14.00,2014-02-10 02:49:00,
2014-02-09 20:54:00,-8.4,-13.1,30.63,North,355,2.0,4.0,79,0.00,,CLR,0.00,0.00,VWS V14.00,2014-02-10 02:54:00,
2014-02-09 20:59:00,-8.6,-13.3,30.63,North,355,2.0,4.0,79,0.00,,CLR,0.00,0.00,VWS V14.00,2014-02-10 02:59:00,
2014-02-09 21:04:00,-8.6,-13.3,30.64,North,355,2.0,3.0,79,0.00,,CLR,0.00,0.00,VWS V14.00,2014-02-10 03:04:00,
2014-02-09 21:09:00,-8.6,-13.1,30.63,North,355,1.0,3.0,80,0.00,,CLR,0.00,0.00,VWS V14.00,2014-02-10 03:09:00,
2014-02-09 21:14:00,-8.6,-13.1,30.64,North,355,1.0,3.0,80,0.00,,CLR,0.00,0.00,VWS V14.00,2014-02-10 03:14:00,
2014-02-09 21:19:00,-8.6,-13.1,30.64,North,355,2.0,3.0,80,0.00,,CLR,0.00,0.00,VWS V14.00,2014-02-10 03:19:00,
2014-02-09 21:24:00,-8.7,-13.2,30.64,North,355,3.0,3.0,80,0.00,,CLR,0.00,0.00,VWS V14.00,2014-02-10 03:24:00,
2014-02-09 21:29:00,-8.8,-13.3,30.64,North,355,3.0,4.0,80,0.00,,CLR,0.00,0.00,VWS V14.00,2014-02-10 03:29:00,
2014-02-09 21:34:00,-8.9,-13.4,30.64,North,355,3.0,4.0,80,0.00,,CLR,0.00,0.00,VWS V14.00,2014-02-10 03:34:00,
2014-02-09 21:39:00,-8.9,-13.4,30.64,North,350,3.0,4.0,80,0.00,,CLR,0.00,0.00,VWS V14.00,2014-02-10 03:39:00,
2014-02-09 21:45:00,-9.0,-13.7,30.64,NNW,347,2.0,4.0,79,0.00,,CLR,0.00,0.00,VWS V14.00,2014-02-10 03:45:00,
2014-02-09 21:50:00,-9.0,-13.5,30.64,NNW,348,2.0,4.0,80,0.00,,CLR,0.00,0.00,VWS V14.00,2014-02-10 03:50:00,
2014-02-09 21:55:00,-9.3,-14.0,30.64,NNW,348,1.0,4.0,79,0.00,,CLR,0.00,0.00,VWS V14.00,2014-02-10 03:55:00,
2014-02-09 22:00:00,-9.4,-14.1,30.65,NNW,348,0.0,4.0,79,0.00,,CLR,0.00,0.00,VWS V14.00,2014-02-10 04:00:00,
2014-02-09 22:05:00,-9.6,-14.3,30.65,NNW,348,0.0,0.0,79,0.00,,CLR,0.00,0.00,VWS V14.00,2014-02-10 04:05:00,
2014-02-09 22:10:00,-9.5,-14.0,30.65,NNW,348,2.0,3.0,80,0.00,,CLR,0.00,0.00,VWS V14.00,2014-02-10 04:10:00,
2014-02-09 22:15:00,-9.1,-13.3,30.65,NNW,348,3.0,3.0,81,0.00,,CLR,0.00,0.00,VWS V14.00,2014-02-10 04:15:00,
2014-02-09 22:20:00,-8.9,-13.1,30.65,NNW,347,2.0,3.0,81,0.00,,CLR,0.00,0.00,VWS V14.00,2014-02-10 04:20:00,
2014-02-09 22:25:00,-9.0,-13.5,30.65,NNW,347,2.0,3.0,80,0.00,,CLR,0.00,0.00,VWS V14.00,2014-02-10 04:25:00,
2014-02-09 22:30:00,-9.1,-13.6,30.65,NNW,347,2.0,4.0,80,0.00,,CLR,0.00,0.00,VWS V14.00,2014-02-10 04:30:00,
2014-02-09 22:35:00,-9.0,-13.5,30.65,NNW,347,3.0,4.0,80,0.00,,CLR,0.00,0.00,VWS V14.00,2014-02-10 04:35:00,
2014-02-09 22:40:00,-8.8,-13.0,30.65,NNW,347,3.0,4.0,81,0.00,,CLR,0.00,0.00,VWS V14.00,2014-02-10 04:40:00,
2014-02-09 22:45:00,-8.8,-13.3,30.65,NNW,346,2.0,4.0,80,0.00,,CLR,0.00,0.00,VWS V14.00,2014-02-10 04:45:00,
2014-02-09 22:50:00,-9.0,-13.5,30.65,NNW,346,3.0,4.0,80,0.00,,CLR,0.00,0.00,VWS V14.00,2014-02-10 04:50:00,
2014-02-09 22:55:00,-9.3,-13.8,30.65,NNW,343,2.0,4.0,80,0.00,,CLR,0.00,0.00,VWS V14.00,2014-02-10 04:55:00,
2014-02-09 23:00:00,-9.3,-13.8,30.65,NNW,340,2.0,3.0,80,0.00,,CLR,0.00,0.00,VWS V14.00,2014-02-10 05:00:00,
2014-02-09 23:01:00,-9.4,-13.9,30.65,NNW,339,2.0,3.0,80,0.00,,CLR,0.00,0.00,VWS V14.00,2014-02-10 05:01:00,
2014-02-09 23:02:00,-9.4,-13.9,30.65,NNW,338,3.0,3.0,80,0.00,,CLR,0.00,0.00,VWS V14.00,2014-02-10 05:02:00,
2014-02-09 23:03:00,-9.4,-11.1,30.65,NNW,338,2.0,3.0,92,0.00,,CLR,0.00,0.00,VWS V14.00,2014-02-10 05:03:00,
2014-02-09 23:05:00,-9.5,-14.0,30.65,NNW,338,2.0,3.0,80,0.00,,CLR,0.00,0.00,VWS V14.00,2014-02-10 05:05:00,
2014-02-09 23:10:00,-9.7,-14.2,30.65,NNW,337,2.0,3.0,80,0.00,,CLR,0.00,0.00,VWS V14.00,2014-02-10 05:10:00,
2014-02-09 23:15:00,-10.1,-14.6,30.65,NNW,337,1.0,3.0,80,0.00,,CLR,0.00,0.00,VWS V14.00,2014-02-10 05:15:00,
2014-02-09 23:20:00,-10.3,-14.8,30.65,NNW,337,1.0,3.0,80,0.00,,CLR,0.00,0.00,VWS V14.00,2014-02-10 05:20:00,
2014-02-09 23:25:00,-10.4,-14.6,30.64,NNW,337,0.0,3.0,81,0.00,,CLR,0.00,0.00,VWS V14.00,2014-02-10 05:25:00,
2014-02-09 23:31:00,-10.5,-14.7,30.65,NNW,337,0.0,0.0,81,0.00,,CLR,0.00,0.00,VWS V14.00,2014-02-10 05:31:00,
2014-02-09 23:36:00,-10.5,-14.7,30.64,NNW,337,0.0,0.0,81,0.00,,CLR,0.00,0.00,VWS V14.00,2014-02-10 05:36:00,
2014-02-09 23:41:00,-10.6,-14.8,30.64,NNW,337,0.0,2.0,81,0.00,,CLR,0.00,0.00,VWS V14.00,2014-02-10 05:41:00,
2014-02-09 23:46:00,-10.6,-14.8,30.65,NNW,337,0.0,2.0,81,0.00,,CLR,0.00,0.00,VWS V14.00,2014-02-10 05:46:00,
2014-02-09 23:51:00,-10.4,-14.4,30.64,NNW,337,0.0,2.0,82,0.00,,CLR,0.00,0.00,VWS V14.00,2014-02-10 05:51:00,
2014-02-09 23:56:00,-10.3,-14.3,30.64,NNW,337,0.0,2.0,82,0.00,,CLR,0.00,0.00,VWS V14.00,2014-02-10 05:56:00,